Location: Newark
(34.6283°N, 36.0776°E)
Time: 01:57:41
(UTC+00:00)

S-56A Canister/Altair - Pass Details

Date: 18 October 2019
Orbit: 634 x 2498 km, 38.9° (Epoch: 13 November)

Event Time Altitude Azimuth Distance (km) Brightness Sun altitude
Rises 01:11:43 0° 253° (WSW) 3,491 - -31.8°
Reaches altitude 10° 01:13:53 10° 254° (WSW) 2,720 - -31.4°
Exits shadow 01:19:37 72° 274° (W) 1,295 8.3 -30.2°
Maximum altitude 01:20:31 84° 343° (NNW) 1,295 8.4 -30.0°
Drops below altitude 10° 01:30:54 10° 72° (ENE) 4,128 12.2 -27.9°
Sets 01:34:55 0° 73° (ENE) 5,406 13.1 -27.1°
